| time (UTC) | temp F | wind direction | speed knots | gust knots | rain 1hr in | rain 24hr in | rain mn in | humidity % | barometer mb |
| 20260509111538 | 33 | 0 | 0.0 | 0.0 | 0.00 | 0.00 | 0.00 | 94 | 1013.6 |
| 20260509110038 | 32 | 0 | 0.0 | 0.0 | 0.00 | 0.00 | 0.00 | 94 | 1013.7 |
| 20260509104537 | 30 | 0 | 0.0 | 0.0 | 0.00 | 0.00 | 0.00 | 94 | 1013.6 |
| 20260509103037 | 29 | 0 | 0.0 | 0.0 | 0.00 | 0.00 | 0.00 | 93 | 1013.7 |
| 20260509101537 | 29 | 0 | 0.0 | 0.0 | 0.00 | 0.00 | 0.00 | 93 | 1013.7 |
| 20260509100035 | 29 | 0 | 0.0 | 0.0 | 0.00 | 0.00 | 0.00 | 92 | 1013.6 |
| 20260509094538 | 29 | 0 | 0.0 | 0.0 | 0.00 | 0.00 | 0.00 | 92 | 1013.2 |
| 20260509093038 | 29 | 0 | 0.0 | 0.0 | 0.00 | 0.00 | 0.00 | 92 | 1013.0 |
| 20260509091536 | 29 | 0 | 0.0 | 0.0 | 0.00 | 0.00 | 0.00 | 91 | 1012.8 |
| 20260509090035 | 30 | 0 | 0.0 | 0.0 | 0.00 | 0.00 | 0.00 | 92 | 1012.8 |
| 20260509084538 | 30 | 0 | 0.0 | 0.0 | 0.00 | 0.00 | 0.00 | 91 | 1012.7 |
| 20260509083046 | 31 | 0 | 0.0 | 0.0 | 0.00 | 0.00 | 0.00 | 92 | 1012.6 |
| 20260509081536 | 30 | 0 | 0.0 | 0.0 | 0.00 | 0.00 | 0.00 | 92 | 1012.3 |
| 20260509080037 | 30 | 0 | 0.0 | 0.0 | 0.00 | 0.00 | 0.00 | 91 | 1012.3 |
| 20260509074537 | 31 | 0 | 0.0 | 0.0 | 0.00 | 0.00 | 0.00 | 91 | 1012.4 |
| 20260509073036 | 31 | 0 | 0.0 | 0.0 | 0.00 | 0.00 | 0.00 | 91 | 1012.7 |
| 20260509071540 | 30 | 0 | 0.0 | 0.0 | 0.00 | 0.00 | 0.00 | 91 | 1012.7 |
| 20260509070733 | 31 | 70 | 0.0 | 0.0 | 0.00 | 0.00 | 0.00 | 91 | 1012.7 |
| 20260509070037 | 30 | 0 | 0.0 | 0.0 | 0.00 | 0.00 | 0.00 | 90 | 1012.8 |
| 20260509064536 | 30 | 0 | 0.0 | 0.0 | 0.00 | 0.00 | 0.00 | 90 | 1012.9 |
| 20260509063035 | 31 | 0 | 0.0 | 0.0 | 0.00 | 0.00 | 0.00 | 89 | 1012.9 |
| 20260509061541 | 31 | 0 | 0.0 | 0.0 | 0.00 | 0.00 | 0.00 | 89 | 1012.9 |
| 20260509060037 | 32 | 0 | 0.0 | 0.0 | 0.00 | 0.00 | 0.00 | 88 | 1012.9 |
| 20260509054540 | 32 | 0 | 0.0 | 0.0 | 0.00 | 0.00 | 0.00 | 88 | 1013.0 |
| 20260509053058 | 32 | 0 | 0.0 | 0.0 | 0.00 | 0.00 | 0.00 | 87 | 1012.9 |
| 20260509051536 | 33 | 0 | 0.0 | 0.0 | 0.00 | 0.00 | 0.00 | 87 | 1012.8 |
| 20260509050037 | 33 | 0 | 0.0 | 0.0 | 0.00 | 0.00 | 0.00 | 86 | 1012.7 |
| 20260509044534 | 33 | 0 | 0.0 | 0.0 | 0.00 | 0.00 | 0.00 | 85 | 1012.5 |
| 20260509043046 | 34 | 0 | 0.0 | 0.0 | 0.00 | 0.00 | 0.00 | 84 | 1012.5 |
| 20260509041550 | 35 | 0 | 0.0 | 0.0 | 0.00 | 0.00 | 0.00 | 83 | 1012.7 |
| 20260509040035 | 35 | 0 | 0.0 | 0.0 | 0.00 | 0.00 | 0.00 | 82 | 1012.5 |
| 20260509034546 | 36 | 0 | 0.0 | 0.0 | 0.00 | 0.00 | 0.00 | 81 | 1012.5 |
| 20260509033037 | 37 | 0 | 0.0 | 0.0 | 0.00 | 0.00 | 0.00 | 80 | 1012.5 |
| 20260509031539 | 37 | 0 | 0.0 | 0.0 | 0.00 | 0.00 | 0.00 | 78 | 1012.3 |
| 20260509030036 | 38 | 0 | 0.0 | 0.0 | 0.00 | 0.00 | 0.00 | 77 | 1012.2 |
| 20260509024536 | 39 | 0 | 0.0 | 0.0 | 0.00 | 0.00 | 0.00 | 75 | 1012.0 |
| 20260509023037 | 40 | 0 | 0.0 | 0.0 | 0.00 | 0.00 | 0.00 | 73 | 1011.9 |
| 20260509021538 | 41 | 0 | 0.0 | 0.0 | 0.00 | 0.00 | 0.00 | 72 | 1011.7 |
| 20260509020047 | 42 | 0 | 0.0 | 0.0 | 0.00 | 0.00 | 0.00 | 70 | 1011.5 |
| 20260509014535 | 43 | 0 | 0.0 | 0.0 | 0.00 | 0.00 | 0.00 | 66 | 1011.4 |
| 20260509013047 | 45 | 0 | 0.0 | 0.0 | 0.00 | 0.00 | 0.00 | 61 | 1011.1 |
| 20260509011536 | 46 | 0 | 0.0 | 0.0 | 0.00 | 0.00 | 0.00 | 58 | 1011.0 |
| 20260509010049 | 46 | 0 | 0.0 | 2.6 | 0.00 | 0.00 | 0.00 | 57 | 1010.8 |
| 20260509004537 | 47 | 123 | 0.9 | 3.5 | 0.00 | 0.00 | 0.00 | 57 | 1010.6 |
| 20260509003037 | 47 | 0 | 0.0 | 1.7 | 0.00 | 0.00 | 0.00 | 54 | 1010.5 |
| 20260509001536 | 48 | 0 | 0.0 | 2.6 | 0.00 | 0.00 | 0.00 | 53 | 1010.3 |
| 20260509000034 | 49 | 0 | 0.0 | 6.1 | 0.00 | 0.00 | 0.00 | 52 | 1010.0 |
| 20260508235427 | 49 | 19 | 0.9 | 5.2 | 0.00 | 0.00 | 0.00 | 50 | 1009.9 |
| 20260508234919 | 50 | 192 | 0.0 | 0.9 | 0.00 | 0.00 | 0.00 | 49 | 1009.8 |
| 20260508234538 | 49 | 200 | 0.9 | 2.6 | 0.00 | 0.00 | 0.00 | 47 | 1009.8 |
| 20260508234419 | 50 | 109 | 0.0 | 1.7 | 0.00 | 0.00 | 0.00 | 47 | 1009.7 |
| 20260508233037 | 50 | 0 | 0.0 | 6.1 | 0.00 | 0.00 | 0.00 | 44 | 1009.4 |
| 20260508231536 | 50 | 0 | 0.0 | 7.0 | 0.00 | 0.00 | 0.00 | 41 | 1009.3 |
| 20260508230047 | 50 | 0 | 0.9 | 2.6 | 0.00 | 0.00 | 0.00 | 40 | 1009.2 |
| 20260508224541 | 51 | 0 | 0.0 | 0.0 | 0.00 | 0.00 | 0.00 | 39 | 1009.2 |
| 20260508223039 | 51 | 0 | 0.0 | 5.2 | 0.00 | 0.00 | 0.00 | 43 | 1009.0 |
| 20260508221545 | 52 | 72 | 0.0 | 2.6 | 0.00 | 0.00 | 0.00 | 37 | 1009.0 |
| 20260508220037 | 52 | 334 | 0.9 | 2.6 | 0.00 | 0.00 | 0.00 | 38 | 1008.9 |
| 20260508214535 | 52 | 0 | 0.0 | 1.7 | 0.00 | 0.00 | 0.00 | 39 | 1008.8 |
| 20260508213034 | 52 | 0 | 0.0 | 5.2 | 0.00 | 0.00 | 0.00 | 41 | 1008.8 |
| 20260508211535 | 52 | 0 | 0.0 | 3.5 | 0.00 | 0.00 | 0.00 | 37 | 1008.8 |
| 20260508211252 | 53 | 299 | 0.9 | 2.6 | 0.00 | 0.00 | 0.00 | 39 | 1008.7 |
| 20260508210745 | 53 | 340 | 0.9 | 2.6 | 0.00 | 0.00 | 0.00 | 38 | 1008.6 |
| 20260508210236 | 53 | 70 | 0.0 | 2.6 | 0.00 | 0.00 | 0.00 | 35 | 1008.5 |
| 20260508210036 | 52 | 329 | 0.9 | 5.2 | 0.00 | 0.00 | 0.00 | 36 | 1008.6 |
| 20260508205722 | 52 | 23 | 0.0 | 2.6 | 0.00 | 0.00 | 0.00 | 36 | 1008.5 |
| 20260508204539 | 52 | 324 | 1.7 | 4.3 | 0.00 | 0.00 | 0.00 | 40 | 1008.5 |
| 20260508203942 | 52 | 340 | 0.9 | 2.6 | 0.00 | 0.00 | 0.00 | 39 | 1008.3 |
| 20260508203450 | 52 | 340 | 0.9 | 2.6 | 0.00 | 0.00 | 0.00 | 39 | 1008.4 |
| 20260508203035 | 52 | 302 | 1.7 | 3.5 | 0.00 | 0.00 | 0.00 | 39 | 1008.4 |
| 20260508202957 | 52 | 357 | 0.9 | 2.6 | 0.00 | 0.00 | 0.00 | 39 | 1008.3 |
| 20260508202453 | 52 | 336 | 0.9 | 2.6 | 0.00 | 0.00 | 0.00 | 38 | 1008.3 |
| 20260508201536 | 52 | 358 | 0.9 | 3.5 | 0.00 | 0.00 | 0.00 | 38 | 1008.3 |
| 20260508200655 | 52 | 321 | 0.0 | 0.0 | 0.00 | 0.00 | 0.00 | 39 | 1008.2 |
| 20260508200201 | 51 | 321 | 0.0 | 0.0 | 0.00 | 0.00 | 0.00 | 41 | 1008.3 |
| 20260508200043 | 51 | 0 | 0.0 | 4.3 | 0.00 | 0.00 | 0.00 | 39 | 1008.3 |
| 20260508195649 | 51 | 3 | 0.9 | 2.6 | 0.00 | 0.00 | 0.00 | 39 | 1008.4 |
| 20260508195149 | 52 | 301 | 0.0 | 1.7 | 0.00 | 0.00 | 0.00 | 39 | 1008.4 |
| 20260508194535 | 51 | 23 | 0.0 | 2.6 | 0.00 | 0.00 | 0.00 | 41 | 1008.4 |
| 20260508193037 | 51 | 0 | 0.0 | 3.5 | 0.00 | 0.00 | 0.00 | 40 | 1008.5 |
| 20260508191534 | 52 | 24 | 1.7 | 7.8 | 0.00 | 0.00 | 0.00 | 38 | 1008.4 |
| 20260508190043 | 50 | 143 | 0.9 | 3.5 | 0.00 | 0.00 | 0.00 | 42 | 1008.7 |
| 20260508184538 | 49 | 0 | 0.0 | 3.5 | 0.00 | 0.00 | 0.00 | 43 | 1008.8 |
| 20260508183037 | 50 | 353 | 1.7 | 3.5 | 0.00 | 0.00 | 0.00 | 43 | 1008.8 |
| 20260508181537 | 51 | 0 | 0.9 | 7.0 | 0.00 | 0.00 | 0.00 | 40 | 1008.7 |
| 20260508180035 | 50 | 246 | 1.7 | 7.8 | 0.00 | 0.00 | 0.00 | 41 | 1008.8 |
| 20260508174539 | 50 | 236 | 0.9 | 4.3 | 0.00 | 0.00 | 0.00 | 44 | 1009.0 |
| 20260508173038 | 50 | 245 | 0.9 | 7.0 | 0.00 | 0.00 | 0.00 | 42 | 1009.0 |
| 20260508171535 | 49 | 327 | 0.9 | 5.2 | 0.00 | 0.00 | 0.00 | 46 | 1009.1 |
| 20260508170036 | 48 | 307 | 0.0 | 5.2 | 0.00 | 0.00 | 0.00 | 45 | 1009.1 |
| 20260508164538 | 48 | 91 | 0.9 | 4.3 | 0.00 | 0.00 | 0.00 | 44 | 1009.1 |
| 20260508163034 | 48 | 330 | 0.9 | 5.2 | 0.00 | 0.00 | 0.00 | 45 | 1009.3 |
| 20260508161534 | 49 | 124 | 0.9 | 4.3 | 0.00 | 0.00 | 0.00 | 43 | 1009.2 |
| 20260508160036 | 50 | 353 | 0.9 | 4.3 | 0.00 | 0.00 | 0.00 | 42 | 1009.0 |
| 20260508154536 | 50 | 315 | 1.7 | 7.0 | 0.00 | 0.00 | 0.00 | 42 | 1008.9 |
| 20260508153036 | 49 | 107 | 1.7 | 6.1 | 0.00 | 0.00 | 0.00 | 41 | 1008.8 |
| 20260508151534 | 49 | 301 | 0.9 | 4.3 | 0.00 | 0.00 | 0.00 | 43 | 1008.8 |
| 20260508150042 | 50 | 353 | 1.7 | 5.2 | 0.00 | 0.00 | 0.00 | 41 | 1008.9 |
| 20260508144538 | 50 | 239 | 1.7 | 7.8 | 0.00 | 0.00 | 0.00 | 38 | 1008.8 |
| 20260508143036 | 50 | 112 | 1.7 | 5.2 | 0.00 | 0.00 | 0.00 | 40 | 1008.7 |
| 20260508141615 | 50 | 249 | 0.9 | 5.2 | 0.00 | 0.00 | 0.00 | 38 | 1008.9 |
| 20260508141537 | 50 | 348 | 0.9 | 7.0 | 0.00 | 0.00 | 0.00 | 38 | 1008.8 |
| 20260508141100 | 50 | 70 | 0.9 | 7.0 | 0.00 | 0.00 | 0.00 | 38 | 1008.8 |
| 20260508140603 | 49 | 196 | 0.9 | 7.0 | 0.00 | 0.00 | 0.00 | 40 | 1009.0 |
| 20260508140109 | 48 | 348 | 1.7 | 7.0 | 0.00 | 0.00 | 0.00 | 38 | 1008.8 |
| 20260508140035 | 48 | 340 | 1.7 | 8.7 | 0.00 | 0.00 | 0.00 | 38 | 1008.8 |
| 20260508135610 | 48 | 353 | 1.7 | 7.0 | 0.00 | 0.00 | 0.00 | 38 | 1008.9 |
| 20260508135102 | 48 | 80 | 1.7 | 7.0 | 0.00 | 0.00 | 0.00 | 39 | 1009.0 |
| 20260508134555 | 48 | 226 | 1.7 | 7.0 | 0.00 | 0.00 | 0.00 | 40 | 1009.0 |
| 20260508134538 | 47 | 303 | 1.7 | 7.0 | 0.00 | 0.00 | 0.00 | 40 | 1008.9 |
| 20260508134046 | 47 | 288 | 0.9 | 7.0 | 0.00 | 0.00 | 0.00 | 44 | 1009.0 |
| 20260508133533 | 47 | 12 | 1.7 | 7.0 | 0.00 | 0.00 | 0.00 | 44 | 1009.0 |
| 20260508133038 | 46 | 93 | 1.7 | 7.8 | 0.00 | 0.00 | 0.00 | 44 | 1008.8 |
| 20260508133026 | 46 | 109 | 0.9 | 6.1 | 0.00 | 0.00 | 0.00 | 44 | 1008.8 |
| 20260508132527 | 46 | 120 | 0.0 | 4.3 | 0.00 | 0.00 | 0.00 | 45 | 1008.9 |
| 20260508132022 | 46 | 149 | 0.0 | 2.6 | 0.00 | 0.00 | 0.00 | 47 | 1009.0 |
| 20260508131535 | 45 | 332 | 0.0 | 3.5 | 0.00 | 0.00 | 0.00 | 51 | 1009.0 |
| 20260508131519 | 46 | 332 | 0.0 | 1.7 | 0.00 | 0.00 | 0.00 | 51 | 1009.0 |
| 20260508131011 | 45 | 353 | 0.0 | 4.3 | 0.00 | 0.00 | 0.00 | 48 | 1009.0 |
| 20260508130502 | 45 | 357 | 0.0 | 4.3 | 0.00 | 0.00 | 0.00 | 49 | 1009.1 |
| 20260508130056 | 44 | 0 | 0.0 | 8.7 | 0.00 | 0.00 | 0.00 | 51 | 1009.1 |
| 20260508125955 | 45 | 38 | 0.0 | 0.9 | 0.00 | 0.00 | 0.00 | 51 | 1009.1 |
| 20260508124535 | 43 | 0 | 0.0 | 2.6 | 0.00 | 0.00 | 0.00 | 61 | 1009.2 |
| 20260508123035 | 42 | 0 | 0.0 | 1.7 | 0.00 | 0.00 | 0.00 | 63 | 1009.2 |
| 20260508121538 | 42 | 0 | 0.0 | 3.5 | 0.00 | 0.00 | 0.00 | 72 | 1009.2 |
| 20260508120035 | 40 | 0 | 0.9 | 3.5 | 0.00 | 0.00 | 0.00 | 69 | 1009.2 |
| 20260508114535 | 38 | 0 | 0.0 | 2.6 | 0.00 | 0.00 | 0.00 | 76 | 1009.1 |
| 20260508113041 | 34 | 0 | 0.0 | 1.7 | 0.00 | 0.00 | 0.00 | 87 | 1009.0 |